Voltar ao catálogo

KUIPER-00612

AtivoComunicaçõesLEO
NORAD 69772·PAYLOAD·🇺🇸 United States

Lançado Jul 2, 2026 de Cape Canaveral Space Force Station

Loading…

Próximas Passagens (próximas 24 horas)

TLE

AtualizadoSource: CelesTrak SupGP

Época: Sep 14, 2026, 17:00 UTC

1 69772C 26151K   26257.70873843 -.00000629  00000+0 -88986-4 0  2576
2 69772  51.8993 257.2300 0000791  45.5158 233.5477 14.76634927    13

Acompanhe KUIPER-00612 em tempo real com AllMySat

Download on the App Store